• In Czech Republic
  • List of Countries
  • For 7 days
  • Water Temperature
  • Satellite Maps
  • Weather Map
  • Weather Widgets
  • user-avatar
    Login

    Hourly Weather Arnold

    Today, 20 November, Monday

    Time Temperature Precipitation Wind Pressure Humidity
    00:00 +5°C° 0 mm 3 mps 756 mmHg 89%
    01:00 +5°C° 0.1 mm 4 mps 755 mmHg 91%
    02:00 +6°C° 0.1 mm 5 mps 755 mmHg 92%
    03:00 +7°C° 0.1 mm 5 mps 754 mmHg 94%
    04:00 +7°C° 0.2 mm 6 mps 753 mmHg 93%
    05:00 +8°C° 0.2 mm 6 mps 752 mmHg 91%
    06:00 +9°C° 0.2 mm 6 mps 752 mmHg 90%
    07:00 +9°C° 0.1 mm 6 mps 751 mmHg 90%
    08:00 +9°C° 0.1 mm 6 mps 751 mmHg 90%
    09:00 +10°C° 0.1 mm 6 mps 751 mmHg 89%
    10:00 +10°C° 0.1 mm 6 mps 750 mmHg 87%
    11:00 +11°C° 0.1 mm 7 mps 750 mmHg 85%
    12:00 +12°C° 0.1 mm 7 mps 750 mmHg 83%
    13:00 +13°C° 0.1 mm 6 mps 750 mmHg 83%
    14:00 +13°C° 0.1 mm 6 mps 750 mmHg 82%
    15:00 +13°C° 0.1 mm 6 mps 749 mmHg 82%
    16:00 +12°C° 0 mm 5 mps 749 mmHg 85%
    17:00 +12°C° 0 mm 5 mps 749 mmHg 88%
    18:00 +11°C° 0 mm 4 mps 749 mmHg 91%
    19:00 +11°C° 0.2 mm 4 mps 750 mmHg 92%
    20:00 +11°C° 0.2 mm 4 mps 750 mmHg 94%
    21:00 +11°C° 0.2 mm 3 mps 750 mmHg 95%
    22:00 +11°C° 0.8 mm 3 mps 750 mmHg 95%
    23:00 +11°C° 0.8 mm 3 mps 750 mmHg 96%

    Tomorrow, 21 November, Tuesday

    Time Temperature Precipitation Wind Pressure Humidity
    00:00 +11°C° 0.8 mm 3 mps 750 mmHg 96%
    01:00 +12°C° 0.2 mm 3 mps 750 mmHg 95%
    02:00 +12°C° 0.2 mm 4 mps 749 mmHg 94%
    03:00 +12°C° 0.2 mm 4 mps 749 mmHg 93%
    04:00 +12°C° 0 mm 4 mps 749 mmHg 93%
    05:00 +12°C° 0 mm 5 mps 749 mmHg 92%
    06:00 +12°C° 0 mm 5 mps 749 mmHg 92%
    07:00 +12°C° 0 mm 5 mps 748 mmHg 92%
    08:00 +12°C° 0 mm 5 mps 748 mmHg 91%
    09:00 +12°C° 0 mm 5 mps 748 mmHg 91%
    10:00 +11°C° 0 mm 6 mps 748 mmHg 89%
    11:00 +11°C° 0 mm 6 mps 747 mmHg 86%
    12:00 +11°C° 0 mm 6 mps 747 mmHg 83%
    13:00 +11°C° 0 mm 6 mps 746 mmHg 83%
    14:00 +11°C° 0 mm 6 mps 746 mmHg 83%
    15:00 +11°C° 0 mm 6 mps 745 mmHg 84%
    16:00 +11°C° 0 mm 7 mps 745 mmHg 84%
    17:00 +12°C° 0 mm 7 mps 744 mmHg 84%
    18:00 +12°C° 0 mm 8 mps 743 mmHg 84%
    19:00 +12°C° 0 mm 8 mps 743 mmHg 84%
    20:00 +12°C° 0 mm 8 mps 743 mmHg 85%
    21:00 +12°C° 0 mm 8 mps 743 mmHg 85%
    22:00 +12°C° 0.2 mm 8 mps 742 mmHg 84%
    23:00 +12°C° 0.2 mm 9 mps 742 mmHg 84%

    Day after tomorrow, 22 November, Wednesday

    Time Temperature Precipitation Wind Pressure Humidity
    00:00 +12°C° 0.2 mm 9 mps 741 mmHg 84%
    01:00 +12°C° 0.3 mm 9 mps 741 mmHg 84%
    02:00 +12°C° 0.3 mm 9 mps 740 mmHg 84%
    03:00 +13°C° 0.3 mm 9 mps 740 mmHg 84%
    04:00 +13°C° 0.1 mm 9 mps 740 mmHg 83%
    05:00 +12°C° 0.1 mm 9 mps 740 mmHg 81%
    06:00 +12°C° 0.1 mm 8 mps 740 mmHg 80%
    07:00 +12°C° 0 mm 8 mps 739 mmHg 81%
    08:00 +12°C° 0 mm 8 mps 739 mmHg 82%
    09:00 +12°C° 0 mm 9 mps 739 mmHg 82%
    10:00 +12°C° 0 mm 9 mps 739 mmHg 80%
    11:00 +13°C° 0 mm 9 mps 738 mmHg 78%
    12:00 +13°C° 0 mm 10 mps 737 mmHg 75%
    13:00 +13°C° 0.1 mm 10 mps 737 mmHg 74%
    14:00 +13°C° 0.1 mm 10 mps 736 mmHg 74%
    15:00 +13°C° 0.1 mm 10 mps 735 mmHg 73%
    16:00 +12°C° 0.1 mm 10 mps 734 mmHg 74%
    17:00 +12°C° 0.1 mm 10 mps 734 mmHg 74%
    18:00 +12°C° 0.1 mm 11 mps 733 mmHg 75%
    19:00 +12°C° 0 mm 10 mps 733 mmHg 77%
    20:00 +12°C° 0 mm 9 mps 733 mmHg 79%
    21:00 +12°C° 0 mm 8 mps 732 mmHg 82%
    22:00 +12°C° 0.1 mm 8 mps 732 mmHg 82%
    23:00 +12°C° 0.1 mm 8 mps 732 mmHg 82%

    23 November, Thursday

    Time Temperature Precipitation Wind Pressure Humidity
    00:00 +11°C° 0.1 mm 8 mps 732 mmHg 82%
    01:00 +11°C° 0 mm 8 mps 733 mmHg 83%
    02:00 +11°C° 0 mm 8 mps 733 mmHg 83%
    03:00 +11°C° 0 mm 8 mps 734 mmHg 84%
    04:00 +11°C° 0 mm 7 mps 735 mmHg 83%
    05:00 +11°C° 0 mm 7 mps 736 mmHg 81%
    06:00 +11°C° 0 mm 7 mps 737 mmHg 80%
    07:00 +11°C° 0 mm 7 mps 738 mmHg 82%
    08:00 +11°C° 0 mm 6 mps 739 mmHg 83%
    09:00 +11°C° 0 mm 6 mps 740 mmHg 84%
    10:00 +11°C° 0 mm 7 mps 740 mmHg 82%
    11:00 +12°C° 0 mm 7 mps 741 mmHg 79%
    12:00 +12°C° 0 mm 8 mps 741 mmHg 77%
    13:00 +12°C° 0.1 mm 8 mps 741 mmHg 78%
    14:00 +13°C° 0.1 mm 8 mps 741 mmHg 78%
    15:00 +13°C° 0.1 mm 8 mps 741 mmHg 79%
    16:00 +12°C° 0.1 mm 8 mps 741 mmHg 80%
    17:00 +12°C° 0.1 mm 7 mps 741 mmHg 81%
    18:00 +12°C° 0.1 mm 7 mps 741 mmHg 81%
    19:00 +13°C° 0.2 mm 6 mps 741 mmHg 82%
    20:00 +13°C° 0.2 mm 6 mps 741 mmHg 83%
    21:00 +12°C° 0.2 mm 5 mps 741 mmHg 84%
    22:00 +13°C° 1.1 mm 6 mps 740 mmHg 86%
    23:00 +13°C° 1.1 mm 6 mps 740 mmHg 88%

    24 November, Friday

    Time Temperature Precipitation Wind Pressure Humidity
    00:00 +13°C° 1.1 mm 6 mps 739 mmHg 89%
    01:00 +11°C° 0.7 mm 6 mps 739 mmHg 87%
    02:00 +11°C° 0.7 mm 7 mps 739 mmHg 85%
    03:00 +11°C° 0.7 mm 7 mps 739 mmHg 83%
    04:00 +10°C° 0 mm 6 mps 739 mmHg 82%
    05:00 +9°C° 0 mm 6 mps 740 mmHg 81%
    06:00 +8°C° 0 mm 6 mps 740 mmHg 80%
    07:00 +8°C° 0 mm 6 mps 741 mmHg 78%
    08:00 +8°C° 0 mm 6 mps 741 mmHg 77%
    09:00 +8°C° 0 mm 6 mps 742 mmHg 75%
    10:00 +8°C° 0 mm 6 mps 742 mmHg 72%
    11:00 +8°C° 0 mm 6 mps 742 mmHg 70%
    12:00 +9°C° 0 mm 6 mps 743 mmHg 67%
    13:00 +8°C° 0 mm 5 mps 743 mmHg 68%
    14:00 +8°C° 0 mm 5 mps 743 mmHg 68%
    15:00 +8°C° 0 mm 4 mps 743 mmHg 69%
    16:00 +7°C° 0 mm 4 mps 744 mmHg 71%
    17:00 +8°C° 0 mm 3 mps 744 mmHg 74%
    18:00 +7°C° 0 mm 3 mps 745 mmHg 77%
    19:00 +7°C° 0 mm 2 mps 745 mmHg 78%
    20:00 +6°C° 0 mm 2 mps 746 mmHg 78%
    21:00 +6°C° 0 mm 2 mps 746 mmHg 79%
    22:00 +6°C° 0 mm 2 mps 746 mmHg 79%
    23:00 +6°C° 0 mm 2 mps 746 mmHg 79%

    25 November, Saturday

    Time Temperature Precipitation Wind Pressure Humidity
    00:00 +7°C° 0 mm 1 mps 747 mmHg 79%
    01:00 +6°C° 0.1 mm 2 mps 747 mmHg 77%
    02:00 +4°C° 0.1 mm 3 mps 746 mmHg 75%
    03:00 +4°C° 0.1 mm 4 mps 746 mmHg 74%
    04:00 +4°C° 0.2 mm 4 mps 746 mmHg 73%
    05:00 +4°C° 0.2 mm 4 mps 747 mmHg 72%
    06:00 +3°C° 0.2 mm 4 mps 747 mmHg 71%
    07:00 +3°C° 0.1 mm 4 mps 747 mmHg 70%
    08:00 +3°C° 0.1 mm 4 mps 747 mmHg 70%
    09:00 +3°C° 0.1 mm 4 mps 748 mmHg 69%
    10:00 +3°C° 0 mm 4 mps 748 mmHg 67%
    11:00 +4°C° 0 mm 4 mps 749 mmHg 64%
    12:00 +4°C° 0 mm 4 mps 749 mmHg 62%
    13:00 +4°C° 0 mm 3 mps 750 mmHg 63%
    14:00 +4°C° 0 mm 3 mps 751 mmHg 64%
    15:00 +4°C° 0 mm 3 mps 751 mmHg 64%
    16:00 +4°C° 0 mm 2 mps 752 mmHg 67%
    17:00 +4°C° 0 mm 2 mps 753 mmHg 69%
    18:00 +3°C° 0 mm 2 mps 753 mmHg 71%
    19:00 +4°C° 0 mm 2 mps 754 mmHg 72%
    20:00 +4°C° 0 mm 2 mps 755 mmHg 74%
    21:00 +4°C° 0 mm 2 mps 755 mmHg 75%
    22:00 +4°C° 0 mm 2 mps 756 mmHg 76%
    23:00 +3°C° 0 mm 3 mps 756 mmHg 77%
    Show more